Location: Ottawa
(45.4167°N, 75.7000°W)
Time: 06:31:05
(UTC-05:00)

Vanguard 1 - Visible Passes

Search period start: 21 February 2018 00:00
Search period end: 03 March 2018 00:00
Orbit: 650 x 3833 km, 34.2° (Epoch: 21 February)

Date Brightness Start Highest point End Pass type
(mag) Time Alt. Az. Time Alt. Az. Time Alt. Az.
21 Feb 11.7 19:10:30 10° WSW 19:14:19 17° SSW 19:17:26 10° SSE visible
22 Feb 11.9 19:32:34 10° WSW 19:34:47 12° SW 19:36:46 10° S visible
25 Feb 12.0 18:11:53 10° WSW 18:17:40 21° SSW 18:21:51 10° SSE visible
26 Feb 12.2 18:33:46 10° WSW 18:38:04 16° SW 18:41:27 10° S visible
27 Feb 12.6 18:56:51 10° WSW 18:58:22 11° SW 18:59:46 10° SSW visible
